Simultaneous Nadir Overpasses (SNOs) Predictions

Prediction of SNOs between NOAA-19 and METOP-C Satellite Orbit:

Table of predicted SNOs for the next 14.0 days since TLE Epoch: 12/7/2018
Index Date (NOAA-19) Time (NOAA-19) Lat,Lon (NOAA-19) SZA (NOAA-19 ) Date (METOP-C) Time (METOP-C) Lat,Lon (METOP-C) SZA (METOP-C ) Distance(km) Time Diff (sec)
1 12/16/2018 06:20:49 -79.16, -84.84 77.40 12/16/2018 06:21:53 -79.11, -80.51 77.24 90.88 64
2 12/16/2018 07:11:45 78.82, 85.03 102.39 12/16/2018 07:12:41 78.85, 85.01 102.43 3.40 56
3 12/16/2018 08:02:40 -78.83,-107.77 77.61 12/16/2018 08:03:22 -78.85,-107.67 77.58 2.91 42
4 12/16/2018 08:53:46 78.82, 59.52 102.39 12/16/2018 08:54:03 78.84, 59.58 102.41 2.14 17
5 12/16/2018 09:44:41 -78.83,-133.27 77.61 12/16/2018 09:44:44 -78.84,-133.11 77.60 3.56 3
6 12/16/2018 10:35:47 78.82, 34.02 102.39 12/16/2018 10:35:25 78.82, 34.15 102.40 2.73 22
7 12/16/2018 11:26:41 -78.80,-158.52 77.63 12/16/2018 11:26:06 -78.82,-158.54 77.61 2.71 35
8 12/16/2018 12:17:47 78.79, 8.77 102.37 12/16/2018 12:16:47 78.81, 8.71 102.38 2.57 60




NCC Satellite Simultaneous Nadir Overpasses (SNOs) Prediction Service
